TimeEDT,TemperatureF,Dew PointF,Humidity,Sea Level PressureIn,VisibilityMPH,Wind Direction,Wind SpeedMPH,Gust SpeedMPH,PrecipitationIn,Events,Conditions,WindDirDegrees,DateUTC
12:53 AM,46.9,39.9,77,29.78,10.0,SW,8.1,-,N/A,,Clear,230,2013-10-07 04:53:00
1:53 AM,44.1,39.9,85,29.78,10.0,SW,6.9,-,N/A,,Clear,220,2013-10-07 05:53:00
2:53 AM,44.1,39.0,82,29.79,10.0,SSW,6.9,-,N/A,,Clear,210,2013-10-07 06:53:00
3:53 AM,42.1,39.0,89,29.78,10.0,SW,4.6,-,N/A,,Clear,220,2013-10-07 07:53:00
5:53 AM,46.0,42.1,86,29.79,10.0,SW,9.2,-,N/A,,Overcast,220,2013-10-07 09:53:00
6:51 AM,46.4,42.8,87,29.81,10.0,SW,8.1,-,N/A,,Mostly Cloudy,230,2013-10-07 10:51:00
6:53 AM,46.0,43.0,89,29.81,10.0,SW,8.1,-,N/A,,Mostly Cloudy,230,2013-10-07 10:53:00
7:22 AM,44.6,42.8,93,29.82,10.0,WSW,10.4,-,N/A,,Scattered Clouds,240,2013-10-07 11:22:00
7:53 AM,45.0,41.0,86,29.83,10.0,WSW,12.7,-,N/A,,Partly Cloudy,250,2013-10-07 11:53:00
8:53 AM,46.9,42.1,83,29.84,10.0,WSW,13.8,-,N/A,,Overcast,240,2013-10-07 12:53:00
9:53 AM,50.0,43.0,77,29.87,10.0,West,15.0,20.7,N/A,,Scattered Clouds,260,2013-10-07 13:53:00
10:53 AM,52.0,42.1,69,29.89,10.0,WSW,18.4,26.5,N/A,,Clear,250,2013-10-07 14:53:00
11:53 AM,55.9,45.0,67,29.91,10.0,WSW,15.0,-,N/A,,Scattered Clouds,250,2013-10-07 15:53:00
12:01 PM,55.4,44.6,67,29.90,10.0,WSW,18.4,25.3,N/A,,Mostly Cloudy,250,2013-10-07 16:01:00
12:53 PM,53.1,45.0,74,29.94,10.0,West,17.3,-,N/A,,Overcast,260,2013-10-07 16:53:00
1:29 PM,51.8,46.4,82,29.95,10.0,West,18.4,25.3,N/A,,Overcast,260,2013-10-07 17:29:00
1:53 PM,52.0,46.9,83,29.96,9.0,West,16.1,-,N/A,,Overcast,260,2013-10-07 17:53:00
2:31 PM,55.4,48.2,77,29.95,10.0,WSW,18.4,-,N/A,,Mostly Cloudy,250,2013-10-07 18:31:00
2:53 PM,57.0,48.0,72,29.96,10.0,West,18.4,25.3,N/A,,Mostly Cloudy,280,2013-10-07 18:53:00
3:03 PM,57.2,46.4,67,29.96,10.0,West,16.1,-,N/A,,Scattered Clouds,260,2013-10-07 19:03:00
3:53 PM,60.1,46.9,62,29.97,10.0,West,16.1,23.0,N/A,,Mostly Cloudy,270,2013-10-07 19:53:00
4:53 PM,61.0,43.0,52,29.99,10.0,NW,13.8,-,N/A,,Scattered Clouds,320,2013-10-07 20:53:00
5:53 PM,60.1,44.1,55,30.01,10.0,NW,12.7,18.4,N/A,,Clear,310,2013-10-07 21:53:00
6:53 PM,57.0,43.0,59,30.03,10.0,WNW,9.2,-,N/A,,Clear,300,2013-10-07 22:53:00
7:53 PM,52.0,44.1,74,30.06,10.0,Calm,Calm,-,N/A,,Clear,0,2013-10-07 23:53:00
8:53 PM,46.9,43.0,86,30.08,10.0,Calm,Calm,-,N/A,,Clear,0,2013-10-08 00:53:00
9:53 PM,46.0,43.0,89,30.11,10.0,Calm,Calm,-,N/A,,Clear,0,2013-10-08 01:53:00
10:53 PM,45.0,42.1,90,30.12,10.0,Calm,Calm,-,N/A,,Clear,0,2013-10-08 02:53:00
11:53 PM,46.0,43.0,89,30.14,10.0,SSE,3.5,-,N/A,,Clear,150,2013-10-08 03:53:00